[[{"header":{"parameterUnit":"m.s-1","parameterCategory":1,"la1":30.2991,"la2":30.254,"lo1":-89.0895,"lo2":-89.0444,"dy":0.0017,"dx":0.0017,"nx":28,"ny":28,"refTime":"2025-07-13T21:00:00:Z","depth":0,"parameterNumber":2,"parameterNumberName":"U-component_of_WINDS"},"data":[0,0,0,0,0,0,0,0,0,0,0,0,0,0,0,0,0,0,0,0,0,0,0,0,0,0,0,0,0,0,0,0,0,0,0,0,0,0,0,0,0,0,0,0,0,0,0,0,0,0,0,0,0,0,0,0,0,0,3.2627,3.2629,0,3.2799,3.2801,3.2803,3.2798,3.2795,3.2793,3.2791,3.2971,3.2977,3.2984,0,0,0,0,0,0,0,0,0,0,0,0,0,3.2298,3.2304,3.2627,3.2629,3.2631,3.2799,3.2801,3.2803,3.2798,3.2795,3.2792,3.279,3.2968,3.2977,3.2985,0,0,0,0,0,0,0,0,0,0,0,0,0,3.2453,3.2306,3.2627,3.2649,3.2653,3.2798,3.2801,3.2804,3.2799,3.2795,3.2792,3.2788,3.2966,3.2976,3.2986,3.3122,0,0,3.3018,3.3023,0,0,0,0,0,0,0,0,3.2444,3.2465,3.2644,3.2648,3.2652,3.2773,3.2751,3.2911,3.28,3.2743,3.2791,3.2787,3.2908,3.2923,3.2963,3.313,3.3138,3.3019,3.3026,3.303,3.3033,0,0,0,0,0,0,0,3.2433,3.2457,3.2695,3.2646,3.2651,3.2651,3.2669,3.2781,3.2844,3.2748,3.2748,3.2768,3.291,3.2953,3.2967,3.3141,3.3019,3.3028,3.3035,3.3039,3.3427,3.3431,0,0,0,0,0,0,3.2417,3.2448,3.269,3.27,3.2537,3.266,3.268,3.2738,3.2842,3.2855,3.2771,3.2767,3.2937,3.2955,3.2974,3.3139,3.303,3.304,3.3046,3.3423,3.3428,3.3432,0,0,0,0,0,0,3.241,3.2439,3.2683,3.2574,3.2605,3.267,3.2734,3.2743,3.2786,3.286,3.2871,3.2804,3.2935,3.2959,3.3085,3.3145,3.3044,3.3054,3.3418,3.3425,3.343,3.347,0,0,0,0,0,0,3.2401,3.2436,3.2488,3.2576,3.2611,3.279,3.2738,3.2749,3.2804,3.2801,3.2893,3.2905,3.2934,3.3069,3.3095,3.3158,3.3062,3.3413,3.3421,3.3428,3.3464,3.3477,3.3488,0,0,0,0,0,3.2389,3.2494,3.2491,3.252,3.2677,3.2794,3.2814,3.2844,3.2809,3.2862,3.2909,3.2902,3.3134,3.3082,3.3111,3.3178,3.341,3.3419,3.3428,3.3459,3.3475,3.3488,0,0,0,0,0,0,3.2413,3.2506,3.2503,3.2639,3.2708,3.2792,3.286,3.286,3.2941,3.2935,3.2969,3.299,3.3116,3.316,3.31,3.3314,3.3268,3.3283,3.3281,3.3297,3.3309,3.3296,3.3071,0,0,0,0,0,3.2434,3.252,3.2596,3.2709,3.2744,3.2796,3.2848,3.2864,3.2938,3.2968,3.3024,3.3097,3.3186,3.3244,3.333,3.347,3.349,3.3531,3.3543,3.3552,3.3565,3.3642,3.366,3.3462,3.3462,3.3462,0,0,3.2479,3.254,3.2592,3.2715,3.2771,3.286,3.2821,3.2917,3.2983,3.2983,3.3104,3.3148,3.3231,3.3365,3.3426,3.3405,3.3624,3.3564,3.3571,3.3579,3.3653,3.3672,3.3688,3.3468,3.3467,3.3466,0,0,3.2605,3.266,3.2759,3.2815,3.2899,3.2933,3.2956,3.3041,3.3069,3.3191,3.3192,3.3273,3.3426,3.3484,3.3535,3.3682,3.3679,3.3709,3.3773,3.3847,3.3863,3.3877,3.3929,3.3947,3.3722,3.3722,3.3722,0,3.265,3.2783,3.2811,3.2907,3.2961,3.2962,3.3063,3.3117,3.3225,3.3263,3.3237,3.3428,3.3485,3.3631,3.3667,3.3708,3.3736,3.3699,3.3858,3.3872,3.3886,3.3936,3.3955,3.3725,3.3724,3.3724,3.3724,0,3.2834,3.2926,3.2996,3.3099,3.3161,3.3259,3.3302,3.3362,3.3373,3.3409,3.3533,3.3601,3.37,3.3736,3.3749,3.3885,3.3869,3.385,3.3804,3.3907,3.3955,3.3974,3.3729,3.3728,3.3727,3.3726,0,0,3.2981,3.3096,3.3122,3.3168,3.326,3.3332,3.343,3.3526,3.3576,3.3651,3.3734,3.3862,3.3845,3.3902,3.3921,3.3986,3.4098,3.396,3.3962,3.3982,3.4251,3.4264,3.4286,3.4096,3.41,3.4103,3.4244,0,3.3117,3.3289,3.3316,3.3468,3.3554,3.3556,3.3642,3.3708,3.3744,3.3823,3.3864,3.3954,3.3925,3.3959,3.4024,3.407,3.4152,3.4061,3.4174,3.4178,3.4153,3.4311,3.4325,3.4455,3.4263,3.4266,3.4268,0,3.3298,3.3375,3.3535,3.3614,3.3651,3.3727,3.3816,3.3891,3.3966,3.3988,3.4051,3.4062,3.4164,3.4113,3.4255,3.4192,3.424,3.427,3.4276,3.4287,3.4229,3.4326,3.4497,3.4516,3.4298,3.4295,3.4293,0,3.3388,3.3533,3.3647,3.3686,3.3782,3.3835,3.3878,3.3949,3.4004,3.4082,3.4119,3.4208,3.4258,3.4327,3.4362,3.4322,3.4502,3.4454,3.4523,3.4522,3.4561,3.4558,3.4741,3.4593,3.4592,3.4592,3.4591,0,3.3537,3.3634,3.3688,3.3758,3.3868,3.3898,3.4006,3.4047,3.4111,3.4189,3.4198,3.4272,3.4313,3.4394,3.4422,3.4535,3.4557,3.4578,3.4585,3.4577,3.4575,3.4609,3.4601,3.4597,3.4596,3.4595,3.4594,0,3.3656,3.3696,3.382,3.39,3.3922,3.3999,3.4068,3.4137,3.4172,3.4272,3.4297,3.4354,3.4448,3.449,3.4608,3.4626,3.4755,3.4755,3.4729,3.4731,3.4798,3.4791,3.501,3.504,3.4871,3.4873,3.4874,0,3.3748,3.3823,3.391,3.3962,3.4006,3.4091,3.4146,3.4179,3.4237,3.4327,3.4385,3.4479,3.4557,3.4708,3.4761,3.485,3.4852,3.4923,3.4866,3.4856,3.4853,3.4848,3.4855,3.4933,3.4935,3.4936,3.4937,0,3.3907,3.3922,3.4001,3.4088,3.4153,3.4223,3.4292,3.4335,3.4378,3.4443,3.4539,3.4599,3.4717,3.4811,3.4904,3.4949,3.4951,3.4955,3.4975,3.4969,3.495,3.496,3.4757,3.495,3.4948,3.4948,3.4947,3.4946,3.4015,3.4081,3.4152,3.424,3.4294,3.4358,3.4425,3.4469,3.4549,3.4647,3.4662,3.4764,3.4837,3.4961,3.5009,3.509,3.5073,3.5103,3.5111,3.5118,3.5121,3.4937,3.5107,3.5107,3.5107,3.5107,3.5106,0,3.4173,3.4218,3.4299,3.4393,3.4462,3.4456,3.4531,3.459,3.4679,3.4746,3.4821,3.4931,3.5022,3.5081,3.5172,3.5226,3.5229,3.5249,3.5245,3.5256,3.5132,3.5104,3.5245,3.5245,3.5245,3.5245,3.5245,3.5245,3.4263,3.4375,3.4398,3.4537,3.4582,3.4681,3.4724,3.4783,3.4836,3.4957,3.5032,3.5069,3.5133,3.5229,3.5312,3.5327,3.5361,3.5381,3.5395,3.5279,3.5264,3.5251,3.5225,3.5388,3.5389,3.5512,3.5513,3.5514]},{"header":{"parameterUnit":"m.s-1","parameterCategory":1,"la1":30.2991,"la2":30.254,"lo1":-89.0895,"lo2":-89.0444,"dy":0.0017,"dx":0.0017,"nx":28,"ny":28,"refTime":"2025-07-13T21:00:00:Z","depth":0,"parameterNumber":3,"parameterNumberName":"V-component_of_WINDS"},"data":[0,0,0,0,0,0,0,0,0,0,0,0,0,0,0,0,0,0,0,0,0,0,0,0,0,0,0,0,0,0,0,0,0,0,0,0,0,0,0,0,0,0,0,0,0,0,0,0,0,0,0,0,0,0,0,0,0,0,3.3939,3.3938,0,3.3896,3.3896,3.3895,3.3838,3.3837,3.3836,3.3835,3.379,3.379,3.379,0,0,0,0,0,0,0,0,0,0,0,0,0,3.3969,3.3968,3.3939,3.3938,3.3938,3.3896,3.3896,3.3895,3.3838,3.3837,3.3835,3.3834,3.3791,3.379,3.379,0,0,0,0,0,0,0,0,0,0,0,0,0,3.3944,3.3968,3.3939,3.3904,3.39,3.3896,3.3896,3.3895,3.3838,3.3836,3.3835,3.3834,3.3791,3.379,3.379,3.3816,0,0,3.3789,3.3788,0,0,0,0,0,0,0,0,3.3945,3.3943,3.391,3.3906,3.3902,3.3871,3.389,3.3868,3.3838,3.3862,3.3835,3.3833,3.3818,3.3815,3.3811,3.3814,3.3812,3.3788,3.3788,3.3788,3.3788,0,0,0,0,0,0,0,3.3947,3.3944,3.3922,3.3909,3.3905,3.389,3.3885,3.3886,3.3849,3.386,3.3855,3.3851,3.3816,3.3811,3.3809,3.3811,3.3789,3.3788,3.3788,3.3788,3.3831,3.3833,0,0,0,0,0,0,3.3954,3.3946,3.3923,3.392,3.3921,3.3891,3.3885,3.3882,3.3848,3.3842,3.3852,3.3849,3.3813,3.381,3.3807,3.3834,3.3788,3.3788,3.3787,3.383,3.3832,3.3833,0,0,0,0,0,0,3.3955,3.3953,3.3925,3.3932,3.3927,3.3892,3.3889,3.3882,3.3877,3.3843,3.3836,3.3854,3.3811,3.3808,3.3814,3.3831,3.3787,3.3787,3.3828,3.3831,3.3833,3.3888,0,0,0,0,0,0,3.3956,3.3953,3.3963,3.3933,3.3927,3.3933,3.389,3.3882,3.3877,3.3871,3.3843,3.3837,3.381,3.3815,3.3813,3.383,3.3787,3.3827,3.3829,3.3832,3.3885,3.3892,3.3898,0,0,0,0,0,3.3957,3.3981,3.3964,3.3962,3.3939,3.3934,3.3931,3.3899,3.3879,3.3888,3.3865,3.3838,3.383,3.3816,3.3814,3.3831,3.3825,3.3829,3.3832,3.3881,3.389,3.3898,0,0,0,0,0,0,3.4015,3.3976,3.3957,3.3972,3.3957,3.3924,3.3935,3.391,3.39,3.3896,3.3857,3.3851,3.3861,3.3847,3.3832,3.3853,3.3823,3.3826,3.3862,3.387,3.3877,3.3879,3.3786,0,0,0,0,0,3.4029,3.4028,3.3995,3.4011,3.4004,3.3971,3.3968,3.3945,3.3927,3.3921,3.3899,3.3882,3.3876,3.3873,3.3865,3.3883,3.3874,3.3893,3.39,3.3906,3.3908,3.3914,3.3921,3.3844,3.3844,3.3844,0,0,3.4058,3.4037,3.4039,3.4022,3.4007,3.4006,3.3966,3.3967,3.3966,3.3921,3.3924,3.3908,3.3887,3.3898,3.3902,3.3886,3.3928,3.391,3.3915,3.3914,3.3918,3.3925,3.3932,3.3846,3.3846,3.3845,0,0,3.4111,3.4096,3.4107,3.4093,3.4071,3.4049,3.4052,3.4023,3.401,3.4013,3.3979,3.3976,3.3967,3.3953,3.3944,3.3991,3.3964,3.399,3.4025,3.4031,3.4037,3.4042,3.4056,3.4062,3.3993,3.3993,3.3993,0,3.415,3.4148,3.4115,3.4118,3.4111,3.407,3.408,3.4068,3.4045,3.404,3.4023,3.4009,3.3992,3.3998,3.401,3.4005,3.4005,3.3992,3.4039,3.4043,3.4048,3.4061,3.4067,3.3996,3.3995,3.3995,3.3995,0,3.4196,3.4195,3.4206,3.4184,3.4179,3.4185,3.4153,3.415,3.4128,3.4108,3.411,3.4089,3.4075,3.4075,3.4054,3.4078,3.4068,3.4046,3.4015,3.4059,3.407,3.4075,3.4,3.3999,3.3998,3.3997,0,0,3.4282,3.4243,3.4247,3.4236,3.4209,3.4207,3.4211,3.4198,3.4196,3.4182,3.4183,3.4175,3.4154,3.4144,3.4121,3.4127,3.4162,3.4103,3.4101,3.4112,3.4184,3.42,3.4206,3.4145,3.4146,3.4146,3.4185,0,3.4328,3.4333,3.4303,3.4316,3.4313,3.4274,3.4278,3.4261,3.4242,3.4236,3.4215,3.4209,3.4182,3.4176,3.418,3.4157,3.4175,3.4154,3.4144,3.4144,3.4148,3.4213,3.423,3.4267,3.419,3.419,3.4191,0,3.4382,3.437,3.4382,3.4353,3.4351,3.4354,3.4339,3.4335,3.4315,3.43,3.4289,3.4263,3.4263,3.4235,3.4235,3.4221,3.4215,3.4203,3.4203,3.4199,3.4169,3.4209,3.4279,3.4284,3.4198,3.4198,3.4197,0,3.444,3.4428,3.4433,3.4425,3.4392,3.4395,3.4381,3.436,3.4353,3.434,3.4335,3.4322,3.4314,3.4304,3.4274,3.4257,3.4276,3.4246,3.4262,3.4263,3.4267,3.4266,3.4335,3.4267,3.4267,3.4267,3.4266,0,3.4493,3.4501,3.4458,3.4461,3.4469,3.4435,3.4443,3.4426,3.4407,3.4405,3.4371,3.437,3.4331,3.4325,3.4301,3.4303,3.43,3.4287,3.428,3.4289,3.429,3.4283,3.4279,3.4268,3.4268,3.4267,3.4267,0,3.4559,3.4531,3.4533,3.4502,3.4495,3.4501,3.4474,3.4475,3.4454,3.4451,3.4449,3.4415,3.4406,3.4375,3.4359,3.4343,3.4351,3.434,3.4358,3.4353,3.437,3.4368,3.4434,3.444,3.4371,3.4372,3.4372,0,3.4593,3.4599,3.4568,3.4564,3.4552,3.4547,3.454,3.4507,3.4501,3.4478,3.4481,3.4469,3.4458,3.4445,3.4418,3.4405,3.4391,3.4416,3.4389,3.4397,3.4389,3.4388,3.4387,3.4421,3.4422,3.4422,3.4423,0,3.4656,3.4642,3.4634,3.462,3.4613,3.4601,3.4586,3.4585,3.4548,3.4543,3.4533,3.4525,3.4507,3.4495,3.4478,3.4462,3.4436,3.4432,3.4434,3.4442,3.4452,3.4444,3.4371,3.443,3.4429,3.4429,3.4429,3.4428,3.4706,3.4708,3.4686,3.4678,3.4664,3.4651,3.465,3.4628,3.462,3.4604,3.4585,3.4577,3.4555,3.4529,3.4515,3.4508,3.4493,3.4498,3.4498,3.45,3.4503,3.4455,3.4504,3.4504,3.4504,3.4504,3.4504,0,3.4765,3.4749,3.4742,3.4723,3.4716,3.4693,3.4676,3.4671,3.4665,3.4647,3.4637,3.4625,3.4613,3.4586,3.4571,3.457,3.4557,3.4567,3.4565,3.4562,3.4517,3.4516,3.4577,3.4577,3.4577,3.4577,3.4577,3.4577,3.4794,3.4797,3.478,3.4774,3.4758,3.4751,3.4743,3.473,3.4716,3.4704,3.4694,3.4677,3.4655,3.4638,3.4625,3.4617,3.4612,3.4626,3.4614,3.4572,3.4565,3.4558,3.4556,3.4625,3.4625,3.4658,3.4658,3.4659]}]]